Paynesville, MN

10:08 AM CDT on March 24, 2017 (GMT -0500)
Paynesville

Weather History for KPEX - January, 2013

Change the Weather History Date:

Tuesday, January 22, 2013

  Actual Average (KLJF) Record (KLJF)
Temperature  
Mean Temperature -9 °F -  
Max Temperature 3 °F 26 °F 50 °F (1981)
Min Temperature -20 °F 7 °F -28 °F (1949)
Degree Days  
Heating Degree Days 74    
Moisture  
Dew Point -15 °F    
Average Humidity 72    
Maximum Humidity 78    
Minimum Humidity 64    
Precipitation  
Precipitation 0.00 in - - ()
Sea Level Pressure  
Sea Level Pressure 30.28 in    
Wind  
Wind Speed 2 mph (SW)    
Max Wind Speed 7 mph    
Max Gust Speed -    
Visibility 10 miles    
Events      
Averages and records for this station are not official NWS values.
T = Trace of Precipitation, MM = Missing Value Source: NWS Daily Summary

Daily Weather History Graph

Daily Weather History Graph

Search for Another Location

Airport or City:

Trip Planner

Search our weather history database for the weather conditions in past years. The results will help you decide how hot, cold, wet, or windy it might be!

Date:

Astronomy

Jan. 22, 2013 Rise Set
Actual Time 7:49 AM CST 5:12 PM CST
Civil Twilight 7:17 AM CST 5:44 PM CST
Nautical Twilight 6:41 AM CST 6:20 PM CST
Astronomical Twilight 6:06 AM CST 6:55 PM CST
Moon 1:33 PM CST (1/22) 4:13 AM CST (1/22)
Length of Visible Light 10h 27m
Length of Day
9h 22m
Waxing Gibbous, 83% of the Moon is Illuminated
Jan 22
Waxing Gibbous
Jan 26
Full
Feb 3
Last Quarter
Feb 10
New
Feb 17
First Quarter

Hourly Weather History & Observations

Time (CST) Temp. Windchill Dew Point Humidity Pressure Visibility Wind Dir Wind Speed Gust Speed Precip Events Conditions
12:14 AM -15.9 °F - -21.1 °F 77% 30.28 in 10.0 mi Calm Calm - N/A   Clear
12:33 AM -15.3 °F - -20.7 °F 77% 30.28 in 10.0 mi Calm Calm - N/A   Clear
12:53 AM -15.9 °F -26.0 °F -21.3 °F 77% 30.29 in 10.0 mi West 3.5 mph - N/A   Clear
1:13 AM -14.1 °F - -19.3 °F 77% 30.29 in 10.0 mi Calm Calm - N/A   Clear
1:33 AM -13.9 °F -23.7 °F -19.3 °F 77% 30.29 in 10.0 mi West 3.5 mph - N/A   Clear
1:53 AM -14.8 °F -24.8 °F -20.4 °F 76% 30.29 in 10.0 mi West 3.5 mph - N/A   Clear
2:12 AM -14.8 °F -24.8 °F -20.2 °F 77% 30.30 in 10.0 mi West 3.5 mph - N/A   Clear
2:33 AM -14.8 °F - -20.2 °F 77% 30.30 in 10.0 mi Calm Calm - N/A   Clear
2:53 AM -15.0 °F - -20.4 °F 77% 30.30 in 10.0 mi Calm Calm - N/A   Clear
3:13 AM -15.7 °F - -21.1 °F 77% 30.30 in 10.0 mi Calm Calm - N/A   Clear
3:33 AM -16.4 °F - -21.8 °F 76% 30.30 in 10.0 mi Calm Calm - N/A   Clear
3:54 AM -18.2 °F -28.7 °F -24.0 °F 75% 30.30 in 10.0 mi West 3.5 mph - N/A   Clear
4:13 AM -17.9 °F -28.2 °F -23.4 °F 76% 30.31 in 10.0 mi WSW 3.5 mph - N/A   Clear
4:33 AM -19.3 °F -32.4 °F -24.9 °F 76% 30.31 in 10.0 mi West 4.6 mph - N/A   Clear
4:53 AM -20.0 °F - -25.6 °F 75% 30.31 in 10.0 mi Calm Calm - N/A   Clear
5:13 AM -19.7 °F - -25.6 °F 74% 30.31 in 10.0 mi Calm Calm - N/A   Clear
5:33 AM -19.7 °F - -25.6 °F 74% 30.31 in 10.0 mi Calm Calm - N/A   Clear
5:53 AM -19.3 °F - -24.9 °F 76% 30.32 in 10.0 mi Calm Calm - N/A   Clear
6:13 AM -20.2 °F -30.9 °F -26.3 °F 73% 30.33 in 10.0 mi West 3.5 mph - N/A   Clear
6:33 AM -20.9 °F - -26.9 °F 74% 30.33 in 10.0 mi Calm Calm - N/A   Clear
6:53 AM -19.7 °F - -25.6 °F 74% 30.32 in 10.0 mi Calm Calm - N/A   Clear
7:13 AM -20.4 °F - -26.7 °F 73% 30.30 in 10.0 mi Calm Calm - N/A   Clear
7:33 AM -18.9 °F - -24.3 °F 76% 30.30 in 10.0 mi Calm Calm - N/A   Clear
7:53 AM -19.5 °F - -25.4 °F 74% 30.30 in 10.0 mi Calm Calm - N/A   Clear
8:13 AM -20.6 °F - -26.5 °F 74% 30.30 in 10.0 mi Calm Calm - N/A   Clear
8:33 AM -19.5 °F -32.6 °F -25.2 °F 75% 30.32 in 10.0 mi West 4.6 mph - N/A   Clear
8:53 AM -18.2 °F - -23.6 °F 76% 30.32 in 10.0 mi Calm Calm - N/A   Clear
9:13 AM -16.1 °F - -21.3 °F 77% 30.33 in 10.0 mi Calm Calm - N/A   Clear
9:33 AM -14.3 °F - -19.5 °F 77% 30.33 in 10.0 mi Calm Calm - N/A   Clear
9:53 AM -12.1 °F - -17.3 °F 78% 30.34 in 10.0 mi Calm Calm - N/A   Clear
10:13 AM -10.3 °F - -16.1 °F 76% 30.35 in 10.0 mi Calm Calm - N/A   Clear
10:33 AM -9.0 °F - -16.2 °F 71% 30.34 in 10.0 mi Calm Calm - N/A   Clear
10:53 AM -7.8 °F -16.7 °F -15.0 °F 71% 30.34 in 10.0 mi SSW 3.5 mph - N/A   Clear
11:13 AM -7.2 °F - -15.0 °F 69% 30.34 in 10.0 mi Calm Calm - N/A   Clear
11:33 AM -7.1 °F -15.9 °F -14.8 °F 69% 30.34 in 10.0 mi SSW 3.5 mph - N/A   Clear
11:54 AM -6.2 °F -20.4 °F -13.9 °F 69% 30.33 in 10.0 mi SW 6.9 mph - N/A   Clear
12:14 PM -5.8 °F -16.7 °F -14.1 °F 67% 30.32 in 10.0 mi WSW 4.6 mph - N/A   Clear
12:33 PM -5.8 °F -18.4 °F -14.1 °F 67% 30.32 in 10.0 mi WSW 5.8 mph - N/A   Clear
12:53 PM -5.1 °F -17.6 °F -13.2 °F 68% 30.30 in 10.0 mi SW 5.8 mph - N/A   Clear
1:14 PM -4.9 °F -15.6 °F -13.0 °F 68% 30.30 in 10.0 mi WSW 4.6 mph - N/A   Mostly Cloudy
1:33 PM -4.2 °F -12.6 °F -12.6 °F 67% 30.29 in 10.0 mi West 3.5 mph - N/A   Overcast
1:53 PM -3.8 °F -12.2 °F -12.3 °F 67% 30.29 in 10.0 mi WSW 3.5 mph - N/A   Overcast
2:13 PM -3.3 °F -13.7 °F -12.1 °F 66% 30.29 in 10.0 mi SW 4.6 mph - N/A   Overcast
2:33 PM -2.9 °F -15.0 °F -11.7 °F 66% 30.29 in 10.0 mi WSW 5.8 mph - N/A   Overcast
2:53 PM -2.4 °F -10.6 °F -11.2 °F 66% 30.28 in 10.0 mi WSW 3.5 mph - N/A   Overcast
3:14 PM -1.7 °F -11.8 °F -10.7 °F 66% 30.29 in 10.0 mi WSW 4.6 mph - N/A   Scattered Clouds
3:33 PM -1.7 °F -13.5 °F -11.0 °F 64% 30.28 in 10.0 mi WSW 5.8 mph - N/A   Clear
3:53 PM -1.3 °F -11.4 °F -10.3 °F 66% 30.28 in 10.0 mi WSW 4.6 mph - N/A   Clear
4:13 PM -0.9 °F -11.0 °F -9.8 °F 66% 30.26 in 10.0 mi SW 4.6 mph - N/A   Clear
4:33 PM -0.8 °F -8.7 °F -9.8 °F 66% 30.26 in 10.0 mi SW 3.5 mph - N/A   Mostly Cloudy
4:53 PM -0.6 °F - -9.6 °F 66% 30.26 in 10.0 mi Calm Calm - N/A   Overcast
5:13 PM -0.6 °F - -9.4 °F 66% 30.26 in 10.0 mi Calm Calm - N/A   Overcast
5:33 PM -0.4 °F - -8.7 °F 68% 30.25 in 10.0 mi Calm Calm - N/A   Overcast
5:53 PM -0.4 °F - -8.7 °F 68% 30.25 in 10.0 mi Calm Calm - N/A   Overcast
6:13 PM -0.4 °F -8.3 °F -8.3 °F 69% 30.25 in 10.0 mi South 3.5 mph - N/A   Overcast
6:33 PM 0.1 °F -7.7 °F -7.8 °F 69% 30.25 in 10.0 mi SSW 3.5 mph - N/A   Overcast
6:54 PM -0.0 °F -11.6 °F -7.2 °F 72% 30.25 in 10.0 mi SSW 5.8 mph - N/A   Overcast
7:13 PM 0.1 °F -7.7 °F -7.2 °F 71% 30.24 in 10.0 mi South 3.5 mph - N/A   Overcast
7:33 PM 0.3 °F -7.5 °F -6.9 °F 72% 30.23 in 10.0 mi SSW 3.5 mph - N/A   Overcast
7:53 PM 0.5 °F -11.0 °F -6.7 °F 72% 30.22 in 10.0 mi SSW 5.8 mph - N/A   Overcast
8:13 PM 0.5 °F -7.3 °F -6.2 °F 74% 30.22 in 10.0 mi SSW 3.5 mph - N/A   Overcast
8:33 PM 0.9 °F - -6.2 °F 72% 30.21 in 10.0 mi Calm Calm - N/A   Overcast
8:53 PM 1.0 °F - -6.0 °F 72% 30.21 in 10.0 mi Calm Calm - N/A   Overcast
9:14 PM 1.2 °F - -6.0 °F 72% 30.21 in 10.0 mi Calm Calm - N/A   Overcast
9:33 PM 1.4 °F - -5.8 °F 72% 30.20 in 10.0 mi Calm Calm - N/A   Overcast
9:53 PM 1.8 °F - -5.4 °F 72% 30.20 in 10.0 mi Calm Calm - N/A   Overcast
10:14 PM 1.9 °F - -5.1 °F 72% 30.19 in 10.0 mi Calm Calm - N/A   Overcast
10:33 PM 2.1 °F - -4.9 °F 72% 30.19 in 10.0 mi Calm Calm - N/A   Overcast
10:53 PM 2.3 °F - -4.4 °F 74% 30.19 in 10.0 mi Calm Calm - N/A   Overcast
11:14 PM 2.7 °F - -4.0 °F 74% 30.19 in 10.0 mi Calm Calm - N/A   Overcast
11:33 PM 2.8 °F - -4.0 °F 73% 30.19 in 10.0 mi Calm Calm - N/A   Overcast
11:53 PM 3.2 °F - -3.6 °F 73% 30.19 in 10.0 mi Calm Calm - N/A   Overcast